Weather History for Sedalia, MO

Change the Weather History Date:

Thursday, October 25, 2012

  Actual Average Record
Temperature  
Mean Temperature 58 °F 56 °F  
Max Temperature 73 °F 66 °F 86 °F (2011)
Min Temperature 42 °F 46 °F 23 °F (1982)
Degree Days  
Heating Degree Days 7 10  
Month to date heating degree days 186 178  
Since 1 July heating degree days 226 223  
Cooling Degree Days 0 1  
Month to date cooling degree days 27 35  
Year to date cooling degree days 2107 1485  
Growing Degree Days 8 (Base 50)    
Moisture  
Dew Point 49 °F    
Average Humidity 79    
Maximum Humidity 89    
Minimum Humidity 68    
Precipitation  
Precipitation 0.08 in 0.10 in 1.15 in (1947)
Month to date precipitation 5.74 3.10  
Year to date precipitation 27.92 35.15  
Sea Level Pressure  
Sea Level Pressure 29.93 in    
Wind  
Wind Speed 16 mph (WNW)    
Max Wind Speed 28 mph    
Max Gust Speed 37 mph    
Visibility 9 miles    
Events Rain    
T = Trace of Precipitation, MM = Missing Value Source: NWS Daily Summary

Daily Weather History Graph

Daily Weather History Graph

Search for Another Location

Airport:

Trip Planner

Search our weather history database for the weather conditions in past years. The results will help you decide how hot, cold, wet, or windy it might be!

Date:

Astronomy

Oct. 25, 2012 Rise Set
Actual Time 7:32 AM CDT 6:20 PM CDT
Civil Twilight 7:05 AM CDT 6:47 PM CDT
Nautical Twilight 6:34 AM CDT 7:18 PM CDT
Astronomical Twilight 6:03 AM CDT 7:49 PM CDT
Moon 4:04 PM CDT (10/25) 3:32 AM CDT (10/25)
Length of Visible Light 11h 41m
Length of Day
10h 47m
Waxing Gibbous, 84% of the Moon is Illuminated
Oct 25
Waxing Gibbous
Oct 29
Full
Nov 6
Last Quarter
Nov 13
New
Nov 20
First Quarter

Hourly Weather History & Observations

Time (CDT) Temp. Windchill Dew Point Humidity Pressure Visibility Wind Dir Wind Speed Gust Speed Precip Events Conditions
12:53 AM 72.0 °F - 61.0 °F 68% 29.75 in 10.0 mi South 16.1 mph 25.3 mph N/A   Clear
1:53 AM 70.0 °F - 61.0 °F 73% 29.75 in 10.0 mi South 13.8 mph - N/A   Clear
2:53 AM 70.0 °F - 62.1 °F 76% 29.75 in 10.0 mi South 13.8 mph - N/A   Scattered Clouds
3:53 AM 70.0 °F - 62.1 °F 76% 29.73 in 10.0 mi South 17.3 mph - N/A   Mostly Cloudy
4:53 AM 69.1 °F - 62.1 °F 78% 29.71 in 10.0 mi South 18.4 mph 26.5 mph N/A   Clear
5:53 AM 69.1 °F - 62.1 °F 78% 29.72 in 10.0 mi South 20.7 mph 26.5 mph N/A   Clear
6:53 AM 69.1 °F - 62.1 °F 78% 29.72 in 10.0 mi South 16.1 mph 27.6 mph N/A   Clear
7:53 AM 70.0 °F - 63.0 °F 78% 29.73 in 10.0 mi SSW 16.1 mph 21.9 mph N/A   Scattered Clouds
8:53 AM 71.1 °F - 63.0 °F 75% 29.74 in 10.0 mi SSW 18.4 mph 25.3 mph N/A   Overcast
9:53 AM 72.0 °F - 64.0 °F 76% 29.74 in 10.0 mi SSW 16.1 mph 25.3 mph N/A   Overcast
10:53 AM 72.0 °F - 64.0 °F 76% 29.76 in 10.0 mi WSW 15.0 mph 25.3 mph N/A   Mostly Cloudy
10:57 AM 64.4 °F - 57.2 °F 77% 29.79 in 10.0 mi NW 24.2 mph 32.2 mph N/A   Overcast
11:08 AM 53.6 °F - 51.8 °F 94% 29.82 in 10.0 mi WNW 25.3 mph 34.5 mph 0.00 in Rain Light Rain
11:19 AM 53.6 °F - 50.0 °F 88% 29.83 in 10.0 mi NW 27.6 mph 36.8 mph 0.00 in Rain Light Rain
11:53 AM 51.1 °F - 46.9 °F 86% 29.86 in 10.0 mi NW 19.6 mph 33.4 mph 0.00 in   Overcast
12:16 PM 48.2 °F - 46.4 °F 93% 29.89 in 8.0 mi WNW 17.3 mph 28.8 mph 0.00 in Rain Light Rain
12:53 PM 46.9 °F - 45.0 °F 93% 29.91 in 2.5 mi NW 18.4 mph 25.3 mph 0.04 in Rain Rain
1:03 PM 46.4 °F 40.7 °F 44.6 °F 93% 29.92 in 2.0 mi NW 12.7 mph 25.3 mph 0.02 in Rain Rain
1:10 PM 46.4 °F 39.2 °F 44.6 °F 93% 29.92 in 7.0 mi NW 18.4 mph 29.9 mph 0.03 in Rain Light Rain
1:32 PM 46.4 °F 39.2 °F 44.6 °F 93% 29.94 in 7.0 mi NW 18.4 mph 25.3 mph 0.04 in Rain Light Rain
1:53 PM 46.9 °F - 43.0 °F 86% 29.95 in 10.0 mi NNW 18.4 mph 24.2 mph 0.04 in   Overcast
3:01 PM 46.4 °F 39.8 °F 42.8 °F 87% 30.00 in 10.0 mi NW 16.1 mph 28.8 mph N/A   Overcast
3:17 PM 44.6 °F 37.2 °F 42.8 °F 93% 30.00 in 10.0 mi NW 17.3 mph 29.9 mph N/A   Overcast
3:46 PM 44.6 °F 37.4 °F 41.0 °F 87% 30.02 in 10.0 mi NW 16.1 mph 24.2 mph N/A   Overcast
3:53 PM 45.0 °F 37.4 °F 41.0 °F 86% 30.02 in 10.0 mi NW 18.4 mph 26.5 mph N/A   Overcast
4:53 PM 46.0 °F 38.5 °F 39.9 °F 79% 30.06 in 10.0 mi NNW 19.6 mph 27.6 mph N/A   Overcast
5:53 PM 46.0 °F 39.0 °F 39.0 °F 76% 30.08 in 10.0 mi NNW 17.3 mph 26.5 mph N/A   Overcast
6:53 PM 46.9 °F - 39.0 °F 74% 30.12 in 10.0 mi NNW 11.5 mph 19.6 mph N/A   Overcast
7:33 PM 46.4 °F 40.7 °F 39.2 °F 76% 30.14 in 10.0 mi NNW 12.7 mph 23.0 mph N/A   Overcast
7:53 PM 46.0 °F 41.0 °F 39.0 °F 76% 30.15 in 10.0 mi NNW 10.4 mph - N/A   Overcast
8:53 PM 45.0 °F 39.3 °F 37.9 °F 76% 30.19 in 10.0 mi NNW 11.5 mph - N/A   Mostly Cloudy
9:53 PM 45.0 °F 37.1 °F 36.0 °F 71% 30.21 in 10.0 mi NNW 19.6 mph 27.6 mph N/A   Mostly Cloudy
10:31 PM 44.6 °F 37.4 °F 35.6 °F 71% 30.24 in 10.0 mi North 16.1 mph 25.3 mph N/A   Overcast
10:53 PM 44.1 °F 38.6 °F 36.0 °F 73% 30.24 in 10.0 mi NNW 10.4 mph 20.7 mph N/A   Overcast
11:53 PM 42.1 °F 33.3 °F 33.1 °F 70% 30.28 in 10.0 mi North 19.6 mph 27.6 mph N/A   Overcast